Flag for Turkey Weather past 2 weeks in Istanbul, Turkey

Now
70 °F

Partly sunny.


Feels Like: 70 °F
Forecast: 58 / 74 °F
Wind: 12 mph from North

Location: Istanbul Ataturk Airport

Current Time: May 30, 2015 at 12:05:14 PM

Latest Report: May 30, 2015 at 11:20 AM


Visibility: N/A

Pressure: 29.98 "Hg

Humidity: 53%

Dew point: 52 °F

Location of IstanbulLocation

Historic Weather in Istanbul — Graph

°F

Istanbul temperature yesterday

Maximum temperature yesterday: 68 °F (at 12:20 PM)
Minimum temperature yesterday: 59 °F (at 9:50 PM)
Average temperature yesterday: 64 °F

Past Weeks' High & Low Weather Summary

 TemperatureHumidityPressure
High82 °F (May 16, 3:50 PM)94% (May 28, 3:50 AM)30.12 "Hg (May 28, 3:50 AM)
Low57 °F (May 30, 3:20 AM)26% (May 16, 4:50 PM)29.68 "Hg (May 27, 3:50 PM)
Average68 °F65%29.89 "Hg
* Reported May 15 10:20 AM — May 30 10:50 AM, Istanbul, Weather by CustomWeather, © 2015

Note: Actual official high and low records may vary slightly from our data, if they occured in-between our weather recording intervals... More about our weather records

Advertising

Istanbul weather history for previous 24 hours

 ConditionsComfort  
Time TempWeatherWind HumidityBarometerVisibility
10:50 AM
Sat, May 30
68 °FBroken clouds.15 mph56%29.98 "HgN/A
10:20 AM66 °FPartly sunny.12 mph60%29.98 "HgN/A
9:50 AM66 °FPartly sunny.14 mph60%29.98 "HgN/A
9:20 AM68 °FPartly sunny.10 mph53%29.95 "HgN/A
8:50 AM66 °FPartly sunny.9 mph60%29.95 "HgN/A
8:20 AM64 °FScattered clouds.9 mph64%29.95 "HgN/A
7:50 AM64 °FScattered clouds.7 mph68%29.95 "HgN/A
7:20 AM63 °FScattered clouds.9 mph73%29.95 "HgN/A
6:50 AM61 °FScattered clouds.10 mph77%29.95 "HgN/A
6:20 AM61 °FPassing clouds.9 mph77%29.95 "HgN/A
5:50 AM59 °FPassing clouds.7 mph82%29.92 "HgN/A
5:20 AM59 °FPassing clouds.7 mph77%29.92 "HgN/A
4:50 AM59 °FPassing clouds.7 mph77%29.92 "HgN/A
4:20 AM57 °FPassing clouds.6 mph82%29.92 "HgN/A
3:50 AM59 °FPassing clouds.6 mph72%29.92 "HgN/A
3:20 AM57 °FClear.5 mph72%29.92 "Hg10 mi
2:50 AM59 °FClear.6 mph68%29.92 "Hg10 mi
2:20 AM63 °FClear.6 mph59%29.95 "Hg10 mi
1:50 AM61 °FClear.6 mph63%29.95 "Hg10 mi
1:20 AM59 °FPassing clouds.6 mph68%29.95 "HgN/A
12:50 AM59 °FClear.6 mph68%29.95 "Hg10 mi
12:20 AM63 °FPassing clouds.5 mph56%29.95 "HgN/A
11:50 PM
Fri, May 29
64 °FClear.5 mph52%29.95 "Hg10 mi
11:20 PM61 °FClear.6 mph59%29.95 "Hg10 mi
10:50 PM63 °FClear.5 mph56%29.95 "Hg10 mi
10:20 PM59 °FPassing clouds.7 mph68%29.95 "HgN/A
9:50 PM59 °FClear.9 mph72%29.95 "Hg10 mi
9:20 PM61 °FSunny.8 mph68%29.92 "Hg10 mi
8:50 PM61 °FSunny.10 mph63%29.92 "Hg10 mi
8:20 PM61 °FSunny.10 mph63%29.92 "Hg10 mi
7:50 PM63 °FPassing clouds.9 mph56%29.92 "HgN/A
7:20 PM64 °FPassing clouds.9 mph52%29.92 "HgN/A
6:50 PM66 °FPassing clouds.13 mph46%29.92 "HgN/A
6:20 PM66 °FPassing clouds.10 mph46%29.89 "HgN/A
5:50 PM66 °FPassing clouds.14 mph43%29.89 "HgN/A
5:20 PM68 °FPassing clouds.13 mph40%29.89 "HgN/A
4:50 PM66 °FScattered clouds.15 mph43%29.89 "HgN/A
4:20 PM68 °FScattered clouds.14 mph43%29.89 "HgN/A
3:50 PM66 °FScattered clouds.15 mph52%29.89 "HgN/A
3:20 PM68 °FScattered clouds.16 mph49%29.89 "HgN/A
2:50 PM68 °FScattered clouds.16 mph46%29.89 "HgN/A
2:20 PM68 °FScattered clouds.14 mph46%29.89 "HgN/A
1:50 PM68 °FScattered clouds.14 mph46%29.89 "HgN/A
1:20 PM68 °FScattered clouds.16 mph46%29.89 "HgN/A
12:50 PM66 °FBroken clouds.16 mph49%29.89 "HgN/A
12:20 PM68 °FScattered clouds.17 mph46%29.89 "HgN/A
Weather by CustomWeather, © 2015

See weather overviewHow to use our weather pages